Probability
0 0 0 0 0 0 1 2 2 3 3 3 3 3 4 4 4 3 2 1 0 0 0 0 0 1 2 2 1 0 0 0 0 0 0 0 0 0 0 0 0 0 0
0 0 0 0 0 0 0 1 1 2 3 3 3 3 3 4 3 3 3 1 0 0 0 0 0 1 2 2 1 1 0 0 0 0 0 0 0 0 0 0 0 0 0
0 0 0 0 0 0 0 0 0 1 2 3 3 3 3 3 3 3 3 2 1 0 0 0 0 0 1 2 2 2 1 0 0 0 0 0 0 0 0 0 0 0 0
0 0 0 0 0 0 0 0 0 0 1 2 3 3 3 3 3 3 3 2 1 0 0 0 0 0 0 1 2 2 2 1 0 0 0 0 0 0 0 0 0 0 0
0 0 0 0 0 0 0 0 0 0 0 1 2 2 3 3 3 3 3 3 1 0 0 0 0 0 0 0 1 1 1 1 0 0 0 0 0 0 0 0 0 0 0
0 0 0 0 0 0 0 0 0 0 0 0 1 1 1 2 3 3 3 3 2 1 0 0 0 0 0 0 0 0 0 0 0 0 0 0 0 0 0 0 0 0 0
0 0 0 0 0 0 0 0 0 0 0 0 0 0 0 1 2 3 3 3 2 1 0 0 0 0 0 0 0 0 0 0 0 0 0 0 0 0 0 0 0 0 0
0 0 0 0 0 0 0 0 0 0 0 0 0 0 0 0 1 1 2 3 2 1 0 0 1 1 1 0 0 0 1 1 1 0 0 0 0 0 0 0 0 0 0
0 0 0 0 0 0 0 0 0 0 0 0 0 0 0 0 0 0 1 2 2 1 0 1 2 2 2 1 0 0 1 2 2 1 0 0 0 0 0 0 0 0 0
0 0 0 0 0 0 0 0 0 0 0 0 0 0 0 0 0 0 0 1 1 0 0 1 2 3 3 2 1 0 1 2 2 1 0 0 0 0 0 0 0 0 0
0 0 0 0 0 0 0 0 0 0 0 0 0 0 0 0 0 0 0 0 0 0 0 1 2 3 3 2 1 0 0 1 1 0 0 0 0 0 0 0 0 0 0
0 0 0 0 0 0 0 0 0 0 0 0 0 0 0 0 0 0 0 0 0 0 0 1 3 3 3 2 1 0 0 0 0 0 0 0 0 0 0 0 0 0 0
0 0 0 0 0 0 0 0 0 0 0 0 0 0 0 0 0 0 0 0 0 0 0 1 2 3 3 2 1 0 0 0 0 0 0 0 0 0 0 0 0 0 0
0 0 0 0 0 0 0 0 0 0 0 0 0 0 0 0 0 0 0 0 0 0 0 1 1 2 2 1 0 0 0 0 0 0 0 0 0 0 0 0 0 0 0
0 0 0 0 0 0 0 0 0 0 0 0 0 0 0 0 0 0 0 0 0 0 0 0 0 1 1 0 0 0 0 1 1 0 0 0 0 0 0 0 0 0 0
0 0 0 0 0 0 0 0 0 0 0 0 0 0 0 0 0 0 0 0 0 0 0 0 0 0 0 0 0 0 0 1 2 1 0 0 0 0 0 0 0 0 0
0 0 0 0 0 0 0 0 0 0 0 0 0 0 0 0 0 0 0 0 0 0 0 0 0 0 0 0 0 0 0 1 1 1 0 0 0 0 0 0 0 0 0
0 0 0 0 0 0 0 0 0 0 0 0 0 0 0 0 0 0 0 0 0 0 0 0 0 0 0 0 0 0 0 0 0 0 0 0 0 0 0 0 0 0 0
0 0 0 0 0 0 0 0 0 0 0 0 0 0 0 0 0 0 0 0 0 0 0 0 0 0 0 0 0 0 0 0 0 0 0 0 0 0 0 0 0 0 0
0 0 0 0 0 0 0 0 0 0 0 0 0 0 0 0 0 0 0 0 0 0 0 0 0 0 0 0 0 0 0 0 0 0 0 0 0 0 0 0 0 0 0
0 0 0 0 0 0 0 0 0 0 0 0 0 0 0 0 0 0 0 0 0 0 0 0 0 0 0 0 0 0 0 0 0 0 0 0 0 0 0 0 0 0 0
0 0 0 0 0 0 0 0 0 0 0 0 0 0 0 0 0 0 0 0 0 0 0 0 0 0 0 0 0 0 0 0 0 0 0 0 0 0 0 0 0 0 0
0 0 0 0 0 0 0 0 0 0 0 0 0 0 0 0 0 0 0 0 0 0 0 0 0 0 0 0 0 0 0 0 0 0 0 0 0 0 0 0 0 0 0
0 0 0 0 0 0 0 0 0 0 0 0 0 0 0 0 0 0 0 0 0 0 0 0 0 0 0 0 0 0 0 0 0 0 0 0 0 0 0 0 0 0 0
0 0 0 0 0 0 0 0 0 0 0 0 0 0 0 0 0 0 0 0 0 0 0 0 0 0 0 0 0 0 0 0 0 0 0 0 0 0 0 0 0 0 0
0 0 0 0 0 0 0 0 0 0 0 0 0 0 0 0 0 0 0 0 0 0 0 0 0 0 0 0 0 0 0 0 0 0 0 0 0 0 0 0 0 0 0
Wind_Speed
2 3 3 2 2 2 2 2 2 1 1 1 1 1 1 1 1 1 2 2 2 2 2 2 2 1 2 1 2 2 3 2 1 2 1 1 1 1 1 1 1 1 1
2 2 3 2 2 1 1 2 2 1 0 1 1 1 1 1 1 2 2 2 2 3 2 2 1 2 2 2 2 2 2 1 1 1 1 0 1 0 0 0 0 0 1
1 1 1 2 2 2 2 2 2 1 1 0 1 1 1 1 1 1 2 2 2 3 2 2 2 2 2 2 2 2 3 2 1 1 2 2 2 0 1 1 1 1 0
1 1 1 1 1 1 2 2 2 3 1 1 1 1 1 2 1 1 2 2 2 2 2 2 2 2 1 2 2 1 1 2 2 1 0 1 2 2 0 1 0 1 0
2 1 1 1 1 1 1 2 2 2 2 2 1 1 1 2 2 2 3 2 2 2 2 2 2 2 1 2 2 1 1 1 2 1 1 0 0 1 1 2 1 1 1
1 1 2 2 2 2 2 2 2 2 2 2 2 2 2 2 2 2 2 2 1 1 2 1 1 1 1 1 2 2 2 1 1 1 1 1 1 2 2 2 2 2 2
1 1 1 1 2 2 2 2 2 2 2 1 2 1 2 2 2 2 2 2 1 1 1 1 1 1 1 1 1 2 2 2 2 2 1 1 1 1 1 2 2 2 2
1 1 1 1 1 1 1 1 1 1 1 1 1 1 2 1 1 1 1 2 1 1 1 1 1 0 0 0 1 1 1 1 2 2 2 1 1 1 1 1 2 2 3
1 0 1 1 0 0 1 1 1 1 1 1 1 1 2 2 1 1 1 1 1 1 1 1 1 0 0 0 0 1 1 1 1 2 2 1 1 1 1 1 2 3 4
1 1 1 1 1 1 1 1 1 1 1 1 1 1 1 1 1 1 1 1 1 1 1 1 1 1 0 0 0 1 1 1 1 1 1 2 2 1 1 2 2 2 3
1 1 1 0 0 0 0 1 1 1 1 1 0 1 0 0 0 0 0 0 1 1 1 1 1 1 1 1 1 1 1 1 1 1 2 2 2 2 2 2 2 2 2
1 1 1 1 0 0 0 1 1 1 1 1 0 1 0 1 0 0 0 0 0 0 1 1 1 1 1 1 1 2 1 2 2 2 2 3 2 2 2 2 3 3 3
2 1 2 1 1 1 1 1 1 1 1 1 0 0 0 0 0 1 1 0 0 0 1 1 1 1 1 2 2 2 2 2 3 3 3 3 3 3 3 3 3 3 3
1 1 1 1 1 1 1 1 1 1 1 1 1 1 1 1 1 1 1 1 1 1 1 1 2 2 2 2 2 2 2 2 3 3 3 4 4 4 4 3 3 3 3
2 2 1 1 1 1 1 1 1 1 1 1 1 1 1 1 1 1 1 1 1 1 1 1 2 2 2 2 3 3 3 3 3 3 3 4 4 5 5 4 3 3 3
3 3 2 2 2 2 2 2 2 1 1 1 1 1 1 1 1 1 1 1 2 2 2 2 2 2 2 3 4 4 3 3 4 4 4 4 4 5 7 7 6 6 5
4 3 3 3 3 2 2 2 2 1 1 1 1 1 1 1 1 1 1 1 2 2 2 2 2 3 3 4 5 5 3 3 4 4 4 3 3 4 4 5 7 6 7
2 2 2 2 2 2 2 1 1 1 1 1 1 1 1 2 2 2 2 2 2 2 2 3 3 3 3 4 4 4 3 3 4 4 4 4 4 4 4 4 4 5 5
3 2 2 2 1 1 1 1 1 1 1 2 2 2 2 2 3 3 3 2 2 3 3 3 3 3 4 5 5 4 3 3 4 4 4 4 4 6 6 4 4 5 4
1 1 1 1 1 1 1 1 2 2 2 3 3 3 2 3 3 3 3 2 2 3 3 3 3 4 4 6 6 5 3 3 4 3 4 5 6 7 7 5 5 6 5
1 1 1 1 1 1 1 2 2 3 3 2 2 2 2 2 3 2 2 2 2 2 3 3 4 4 4 6 6 6 3 4 4 4 3 4 7 8 8 7 5 7 6
1 1 1 1 0 1 2 1 2 3 2 1 1 2 2 2 1 1 2 2 2 3 3 3 4 3 3 5 6 7 7 6 4 4 3 4 7 8 8 6 7 7 5
2 1 2 1 0 0 1 2 2 1 1 1 1 2 2 2 1 1 2 2 2 2 3 3 3 3 3 4 6 7 8 8 5 4 6 7 8 8 6 7 8 5 3
2 1 2 1 1 0 0 1 1 0 0 1 2 2 1 2 1 1 1 2 2 2 3 3 4 4 3 3 3 3 3 5 5 4 4 7 7 6 5 4 4 3 3
1 2 2 2 1 0 0 1 1 0 0 1 2 2 2 2 1 2 2 3 3 4 4 4 4 4 4 5 7 5 4 3 4 3 2 2 2 2 3 2 3 2 2
2 2 2 2 1 0 1 1 1 0 1 1 1 1 1 1 2 2 3 5 5 7 8 8 6 5 7 9 9 9 8 8 6 3 2 3 3 4 4 3 3 3 3
Wind_Direction
113 97 79 60 57 39 33 45 46 48 90 124 136 142 145 134 132 136 125 125 125 120 122 123 130 124 126 131 135 133 126 122 119 103 81 45 87 119 119 97 99 96 72
61 79 75 58 41 28 8 36 41 12 143 165 155 168 162 149 141 119 96 116 127 125 128 131 137 137 138 140 140 139 142 144 140 139 135 162 332 355 30 72 95 99 80
96 67 77 60 35 21 2 359 8 10 18 27 119 119 119 112 108 108 103 94 118 119 123 138 138 144 151 162 157 151 154 168 184 155 155 166 206 226 243 207 179 136 94
108 85 77 64 28 2 357 7 17 20 35 50 88 132 153 147 130 114 107 93 90 113 128 135 140 145 147 151 165 156 163 163 182 215 277 182 154 157 233 286 248 199 217
90 85 94 71 43 30 16 11 24 26 20 33 50 122 103 93 96 98 101 94 85 87 96 111 126 141 153 163 163 163 156 165 183 189 189 211 236 194 195 244 247 272 250
71 58 56 51 44 32 22 17 19 19 13 21 44 63 98 108 108 104 108 97 91 85 70 84 115 128 144 170 178 177 175 179 177 188 182 182 187 201 209 234 242 249 246
86 83 75 56 45 35 20 9 17 12 8 29 63 67 68 97 128 134 132 122 111 101 101 81 91 103 141 161 167 176 181 185 183 197 210 221 245 244 224 225 248 260 254
102 97 90 61 28 9 4 14 14 12 18 63 75 69 79 79 77 109 129 144 153 153 126 119 116 113 130 140 161 167 190 188 192 209 215 222 247 261 251 226 228 265 270
122 138 114 76 26 350 352 7 34 19 17 58 77 53 57 71 60 46 105 128 128 136 125 129 118 112 96 134 182 181 193 191 202 212 216 229 244 241 260 250 223 225 257
176 162 141 109 38 353 346 354 24 41 16 73 103 88 48 57 65 52 39 119 134 127 130 128 132 135 135 208 193 230 204 192 209 209 216 233 241 238 242 241 252 248 246
183 173 157 69 33 17 7 350 340 359 15 25 95 96 90 73 64 66 24 37 147 151 151 159 160 175 203 203 198 238 220 210 229 232 224 239 242 242 246 243 245 251 247
207 184 163 169 176 241 278 293 308 327 338 324 165 146 130 109 106 356 339 7 22 149 177 173 177 194 208 210 208 221 226 224 233 242 244 249 240 242 252 250 250 253 250
203 179 168 176 198 260 287 295 301 308 321 318 172 131 138 212 239 266 289 282 314 332 223 180 192 211 222 224 224 217 222 228 238 240 239 245 237 241 248 247 249 255 262
200 203 219 212 244 280 283 285 300 316 320 308 192 193 219 230 236 230 227 232 232 254 259 216 206 214 227 231 233 226 228 235 245 250 246 246 239 240 244 243 246 249 252
242 239 247 253 268 296 300 299 306 325 313 290 250 236 244 243 228 225 223 226 224 228 232 235 230 226 222 223 227 228 227 233 246 255 256 252 249 251 252 250 245 239 240
243 243 244 258 266 270 270 281 291 298 300 280 283 288 257 237 223 234 243 230 233 237 232 228 230 238 241 246 245 243 235 238 240 246 252 254 249 250 258 262 261 253 244
244 234 234 236 245 248 253 250 265 284 279 277 297 313 294 254 240 239 241 247 247 250 252 250 240 242 249 250 249 254 251 244 245 246 251 258 261 251 247 254 260 261 260
247 235 232 240 242 245 245 250 260 245 258 270 278 283 279 276 267 250 244 252 258 253 256 261 257 256 259 258 257 267 263 257 252 247 244 250 259 261 261 256 256 255 257
237 232 215 221 225 225 223 220 239 235 243 262 274 275 266 263 261 249 250 264 261 262 263 264 261 261 268 262 259 264 258 258 262 265 260 253 254 266 271 263 264 269 266
224 210 181 177 195 205 177 190 227 240 252 260 266 267 258 253 254 257 261 267 259 259 264 270 266 261 261 260 260 262 253 257 264 266 262 258 263 267 271 253 250 260 265
190 154 148 172 200 181 166 202 236 252 264 274 279 279 270 262 260 268 273 259 261 265 267 270 270 261 257 259 257 258 254 251 259 262 263 262 271 274 273 268 256 262 273
152 140 144 187 237 166 168 212 257 277 301 299 289 288 286 281 277 269 275 267 257 261 267 271 275 268 259 258 258 260 265 268 260 263 268 271 277 278 277 276 274 276 279
169 154 158 182 302 146 170 217 268 305 321 320 296 291 294 293 285 265 266 267 255 255 266 267 273 281 278 273 274 271 273 275 273 269 272 279 280 280 277 278 280 274 258
183 165 154 174 252 292 272 252 292 323 292 285 292 293 290 295 297 277 261 253 246 248 256 259 265 276 281 276 273 268 269 273 276 279 284 284 281 280 282 284 279 259 244
193 176 177 195 243 294 336 329 333 75 237 270 283 290 285 277 283 274 254 254 249 241 246 245 247 256 264 267 274 275 265 259 259 281 285 272 270 262 261 266 262 248 238
180 175 183 196 230 9 324 326 328 201 203 259 276 279 285 287 285 288 302 293 287 288 280 274 268 266 270 280 278 279 281 283 281 281 262 259 256 257 261 263 260 255 248